Location: Shell Point
(30.0571°N, 84.2896°W)
Time: 07:25:00
(UTC-05:00)

Meteor 2-19 Rocket - Visible Passes

Search period start: 07 December 2016 00:00
Search period end: 17 December 2016 00:00
Orbit: 936 x 959 km, 82.5° (Epoch: 06 December)

Date Brightness Start Highest point End Pass type
(mag) Time Alt. Az. Time Alt. Az. Time Alt. Az.
07 Dec 7.1 05:28:18 10° SE 05:32:20 18° E 05:36:20 10° NE visible
07 Dec 4.7 18:09:13 10° N 18:15:15 78° W 18:21:18 10° S visible
08 Dec 6.3 05:43:48 10° SSE 05:49:05 31° E 05:54:20 10° NNE visible
08 Dec 5.6 18:26:26 10° NNW 18:32:09 46° W 18:37:53 10° SSW visible
09 Dec 5.3 06:00:01 10° SSE 06:05:55 52° E 06:11:49 10° NNE visible
09 Dec 6.6 18:44:01 10° NNW 18:48:58 27° W 18:53:56 10° SW visible
10 Dec 4.5 06:16:44 10° S 06:22:51 87° E 06:28:58 10° N visible
10 Dec 7.2 19:02:15 10° NW 19:05:43 16° W 19:09:10 10° WSW visible
11 Dec 7.2 04:52:20 10° ESE 04:55:38 15° E 04:58:56 10° NE visible
11 Dec 4.5 06:33:52 10° SSW 06:39:51 56° W 06:45:50 10° N visible
12 Dec 6.5 05:07:28 10° SE 05:12:22 26° E 05:17:16 10° NE visible
12 Dec 5.1 06:51:30 10° SW 06:56:56 34° W 07:02:23 10° NNW visible
13 Dec 5.6 05:23:28 10° SSE 05:29:11 43° E 05:34:54 10° NNE visible
13 Dec 6.4 18:06:58 10° NNW 18:12:15 33° W 18:17:33 10° SSW visible
14 Dec 4.6 05:40:00 10° S 05:46:05 74° E 05:52:08 10° N visible
14 Dec 7.1 18:24:54 10° NW 18:29:00 19° W 18:33:08 10° SW visible
15 Dec 7.3 04:16:44 10° ESE 04:18:58 12° E 04:21:11 10° ENE visible
15 Dec 4.3 05:56:59 10° SSW 06:03:02 68° W 06:09:06 10° N visible
15 Dec 7.6 18:44:37 10° WNW 18:45:42 10° W 18:46:47 10° W visible
16 Dec 6.6 04:31:12 10° SE 04:35:40 22° E 04:40:06 10° NE visible
16 Dec 4.8 06:14:26 10° SSW 06:20:06 40° W 06:25:47 10° N visible
